• en Suisse
  • Liste des pays
  • À 7 jours
  • Température de l'eau
  • Carte satellitaire
  • Carte météo
  • Widgets météo
  • user-avatar
    Se connecter

    Météo par heure à Middlesbrough

    Ce jour, 22 Octobre, Lundi

    Heure Température Précipitation Vent Pression Humidité
    00:00 +6°C° 0 mm 5 m/s 773 mmHg 80%
    01:00 +6°C° 0 mm 5 m/s 773 mmHg 79%
    02:00 +6°C° 0 mm 5 m/s 773 mmHg 79%
    03:00 +5°C° 0 mm 5 m/s 774 mmHg 79%
    04:00 +5°C° 0 mm 5 m/s 774 mmHg 79%
    05:00 +5°C° 0 mm 5 m/s 775 mmHg 78%
    06:00 +5°C° 0 mm 4 m/s 775 mmHg 78%
    07:00 +6°C° 0 mm 5 m/s 775 mmHg 75%
    08:00 +7°C° 0 mm 5 m/s 776 mmHg 72%
    09:00 +8°C° 0 mm 5 m/s 776 mmHg 68%
    10:00 +9°C° 0 mm 5 m/s 776 mmHg 67%
    11:00 +10°C° 0 mm 6 m/s 776 mmHg 65%
    12:00 +11°C° 0 mm 6 m/s 776 mmHg 63%
    13:00 +11°C° 0 mm 6 m/s 775 mmHg 65%
    14:00 +11°C° 0 mm 6 m/s 775 mmHg 68%
    15:00 +11°C° 0 mm 6 m/s 775 mmHg 70%
    16:00 +10°C° 0 mm 7 m/s 774 mmHg 73%
    17:00 +9°C° 0 mm 7 m/s 774 mmHg 77%
    18:00 +8°C° 0 mm 7 m/s 774 mmHg 80%
    19:00 +7°C° 0 mm 8 m/s 773 mmHg 80%
    20:00 +9°C° 0 mm 8 m/s 773 mmHg 80%
    21:00 +9°C° 0 mm 8 m/s 773 mmHg 80%
    22:00 +9°C° 0 mm 8 m/s 772 mmHg 80%
    23:00 +9°C° 0 mm 8 m/s 772 mmHg 80%

    Demain, 23 Octobre, Mardi

    Heure Température Précipitation Vent Pression Humidité
    00:00 +9°C° 0 mm 8 m/s 771 mmHg 80%
    01:00 +9°C° 0 mm 8 m/s 771 mmHg 80%
    02:00 +9°C° 0 mm 7 m/s 771 mmHg 80%
    03:00 +8°C° 0 mm 7 m/s 770 mmHg 80%
    04:00 +9°C° 0 mm 7 m/s 770 mmHg 80%
    05:00 +9°C° 0 mm 8 m/s 769 mmHg 79%
    06:00 +8°C° 0 mm 9 m/s 769 mmHg 79%
    07:00 +10°C° 0 mm 9 m/s 769 mmHg 77%
    08:00 +10°C° 0 mm 9 m/s 769 mmHg 75%
    09:00 +11°C° 0 mm 10 m/s 769 mmHg 73%
    10:00 +12°C° 0 mm 10 m/s 769 mmHg 73%
    11:00 +13°C° 0 mm 10 m/s 769 mmHg 73%
    12:00 +14°C° 0 mm 10 m/s 768 mmHg 73%
    13:00 +14°C° 0 mm 10 m/s 768 mmHg 74%
    14:00 +14°C° 0 mm 10 m/s 768 mmHg 75%
    15:00 +15°C° 0 mm 9 m/s 768 mmHg 76%
    16:00 +15°C° 0 mm 9 m/s 768 mmHg 78%
    17:00 +13°C° 0 mm 9 m/s 768 mmHg 80%
    18:00 +13°C° 0 mm 8 m/s 768 mmHg 81%
    19:00 +13°C° 0 mm 8 m/s 768 mmHg 82%
    20:00 +13°C° 0 mm 9 m/s 768 mmHg 82%
    21:00 +13°C° 0 mm 9 m/s 768 mmHg 82%
    22:00 +13°C° 0 mm 8 m/s 769 mmHg 82%
    23:00 +13°C° 0 mm 8 m/s 769 mmHg 83%

    Après-demain, 24 Octobre, Mercredi

    Heure Température Précipitation Vent Pression Humidité
    00:00 +13°C° 0 mm 8 m/s 769 mmHg 83%
    01:00 +12°C° 0 mm 7 m/s 769 mmHg 84%
    02:00 +12°C° 0 mm 7 m/s 769 mmHg 85%
    03:00 +13°C° 0 mm 6 m/s 769 mmHg 86%
    04:00 +11°C° 0 mm 6 m/s 769 mmHg 86%
    05:00 +11°C° 0 mm 6 m/s 769 mmHg 85%
    06:00 +10°C° 0 mm 6 m/s 769 mmHg 85%
    07:00 +10°C° 0 mm 6 m/s 769 mmHg 82%
    08:00 +11°C° 0 mm 6 m/s 769 mmHg 80%
    09:00 +11°C° 0 mm 6 m/s 769 mmHg 78%
    10:00 +13°C° 0 mm 6 m/s 769 mmHg 74%
    11:00 +14°C° 0 mm 6 m/s 769 mmHg 70%
    12:00 +15°C° 0 mm 6 m/s 769 mmHg 66%
    13:00 +14°C° 0 mm 6 m/s 768 mmHg 67%
    14:00 +14°C° 0 mm 6 m/s 768 mmHg 68%
    15:00 +14°C° 0 mm 6 m/s 767 mmHg 69%
    16:00 +13°C° 0 mm 6 m/s 768 mmHg 73%
    17:00 +10°C° 0 mm 6 m/s 768 mmHg 77%
    18:00 +9°C° 0 mm 5 m/s 768 mmHg 82%
    19:00 +8°C° 0 mm 5 m/s 768 mmHg 83%
    20:00 +8°C° 0 mm 5 m/s 768 mmHg 85%
    21:00 +8°C° 0 mm 5 m/s 768 mmHg 87%
    22:00 +7°C° 0 mm 5 m/s 768 mmHg 87%
    23:00 +7°C° 0 mm 5 m/s 768 mmHg 88%

    25 Octobre, Jeudi

    Heure Température Précipitation Vent Pression Humidité
    00:00 +7°C° 0 mm 5 m/s 767 mmHg 89%
    01:00 +7°C° 0 mm 5 m/s 767 mmHg 89%
    02:00 +7°C° 0 mm 5 m/s 767 mmHg 89%
    03:00 +7°C° 0 mm 5 m/s 766 mmHg 89%
    04:00 +7°C° 0 mm 5 m/s 766 mmHg 89%
    05:00 +6°C° 0 mm 5 m/s 765 mmHg 89%
    06:00 +6°C° 0 mm 5 m/s 765 mmHg 89%
    07:00 +7°C° 0 mm 5 m/s 765 mmHg 86%
    08:00 +8°C° 0 mm 5 m/s 765 mmHg 83%
    09:00 +9°C° 0 mm 5 m/s 765 mmHg 80%
    10:00 +10°C° 0 mm 5 m/s 764 mmHg 77%
    11:00 +12°C° 0 mm 5 m/s 764 mmHg 73%
    12:00 +13°C° 0 mm 5 m/s 763 mmHg 70%
    13:00 +12°C° 0 mm 5 m/s 763 mmHg 71%
    14:00 +12°C° 0 mm 5 m/s 762 mmHg 72%
    15:00 +12°C° 0 mm 5 m/s 762 mmHg 73%
    16:00 +10°C° 0 mm 5 m/s 761 mmHg 76%
    17:00 +9°C° 0 mm 5 m/s 761 mmHg 80%
    18:00 +8°C° 0 mm 5 m/s 760 mmHg 84%
    19:00 +8°C° 0 mm 5 m/s 760 mmHg 84%
    20:00 +8°C° 0 mm 5 m/s 759 mmHg 84%
    21:00 +8°C° 0 mm 5 m/s 758 mmHg 84%
    22:00 +8°C° 0 mm 6 m/s 758 mmHg 84%
    23:00 +8°C° 0 mm 6 m/s 757 mmHg 84%

    26 Octobre, Vendredi

    Heure Température Précipitation Vent Pression Humidité
    00:00 +9°C° 0 mm 6 m/s 757 mmHg 84%
    01:00 +8°C° 0.1 mm 6 m/s 756 mmHg 81%
    02:00 +7°C° 0.1 mm 6 m/s 756 mmHg 79%
    03:00 +7°C° 0.1 mm 6 m/s 756 mmHg 76%
    04:00 +5°C° 0 mm 6 m/s 756 mmHg 77%
    05:00 +4°C° 0 mm 6 m/s 756 mmHg 78%
    06:00 +3°C° 0 mm 6 m/s 756 mmHg 79%
    07:00 +4°C° 0 mm 6 m/s 756 mmHg 76%
    08:00 +4°C° 0 mm 7 m/s 756 mmHg 74%
    09:00 +5°C° 0 mm 7 m/s 756 mmHg 71%
    10:00 +5°C° 0 mm 7 m/s 756 mmHg 68%
    11:00 +6°C° 0 mm 7 m/s 756 mmHg 64%
    12:00 +7°C° 0 mm 8 m/s 756 mmHg 60%
    13:00 +6°C° 0.2 mm 7 m/s 756 mmHg 62%
    14:00 +6°C° 0.2 mm 7 m/s 756 mmHg 64%
    15:00 +6°C° 0.2 mm 7 m/s 756 mmHg 65%
    16:00 +5°C° 0.1 mm 6 m/s 755 mmHg 68%
    17:00 +5°C° 0.1 mm 5 m/s 755 mmHg 71%
    18:00 +4°C° 0.1 mm 4 m/s 755 mmHg 74%
    19:00 +4°C° 0.2 mm 4 m/s 755 mmHg 75%
    20:00 +4°C° 0.2 mm 4 m/s 755 mmHg 76%
    21:00 +4°C° 0.2 mm 4 m/s 755 mmHg 78%
    22:00 +3°C° 0.2 mm 4 m/s 755 mmHg 79%
    23:00 +1°C° 0.2 mm 4 m/s 754 mmHg 80%

    27 Octobre, Samedi

    Heure Température Précipitation Vent Pression Humidité
    00:00 +1°C° 0.2 mm 5 m/s 754 mmHg 82%
    01:00 +1°C° 0.1 mm 5 m/s 754 mmHg 81%
    02:00 0°C° 0.1 mm 5 m/s 754 mmHg 81%
    03:00 0°C° 0.1 mm 5 m/s 754 mmHg 81%
    04:00 0°C° 0.3 mm 5 m/s 754 mmHg 81%
    05:00 -1°C° 0.3 mm 6 m/s 754 mmHg 80%
    06:00 -1°C° 0.3 mm 6 m/s 754 mmHg 80%
    07:00 0°C° 0.9 mm 8 m/s 755 mmHg 78%
    08:00 +1°C° 0.9 mm 9 m/s 755 mmHg 76%
    09:00 +2°C° 0.9 mm 11 m/s 756 mmHg 74%
    10:00 +2°C° 0.1 mm 11 m/s 756 mmHg 72%
    11:00 +2°C° 0.1 mm 10 m/s 757 mmHg 71%
    12:00 +3°C° 0.1 mm 10 m/s 757 mmHg 69%
    13:00 +2°C° 0 mm 10 m/s 757 mmHg 69%
    14:00 +2°C° 0 mm 9 m/s 757 mmHg 69%
    15:00 +2°C° 0 mm 9 m/s 757 mmHg 69%
    16:00 +1°C° 0 mm 8 m/s 757 mmHg 71%
    17:00 0°C° 0 mm 8 m/s 757 mmHg 73%
    18:00 -1°C° 0 mm 7 m/s 757 mmHg 74%
    19:00 -1°C° 0 mm 7 m/s 757 mmHg 75%
    20:00 -1°C° 0 mm 7 m/s 757 mmHg 76%
    21:00 -1°C° 0 mm 7 m/s 757 mmHg 77%
    22:00 -1°C° 0.1 mm 7 m/s 757 mmHg 78%
    23:00 0°C° 0.1 mm 7 m/s 757 mmHg 79%

    28 Octobre, Dimanche

    Heure Température Précipitation Vent Pression Humidité
    00:00 +2°C° 0.1 mm 7 m/s 757 mmHg 80%
    01:00 +2°C° 0.1 mm 7 m/s 758 mmHg 79%
    02:00 +1°C° 0.1 mm 8 m/s 758 mmHg 78%
    03:00 +2°C° 0.1 mm 8 m/s 758 mmHg 77%
    04:00 +2°C° 0.2 mm 8 m/s 758 mmHg 76%
    05:00 +2°C° 0.2 mm 8 m/s 758 mmHg 75%
    06:00 +2°C° 0.2 mm 8 m/s 758 mmHg 75%
    07:00 +2°C° 0.3 mm 8 m/s 759 mmHg 73%
    08:00 +4°C° 0.3 mm 8 m/s 759 mmHg 71%
    09:00 +3°C° 0.3 mm 9 m/s 759 mmHg 70%
    10:00 +5°C° 0.4 mm 9 m/s 759 mmHg 68%
    11:00 +5°C° 0.4 mm 9 m/s 759 mmHg 66%
    12:00 +6°C° 0.4 mm 9 m/s 760 mmHg 64%
    13:00 +5°C° 0.3 mm 8 m/s 760 mmHg 65%
    14:00 +5°C° 0.3 mm 8 m/s 759 mmHg 67%
    15:00 +5°C° 0.3 mm 7 m/s 759 mmHg 68%
    16:00 +4°C° 0.2 mm 7 m/s 760 mmHg 71%
    17:00 +3°C° 0.2 mm 7 m/s 760 mmHg 73%
    18:00 +3°C° 0.2 mm 6 m/s 760 mmHg 76%
    19:00 +2°C° 0.1 mm 6 m/s 760 mmHg 77%
    20:00 +2°C° 0.1 mm 6 m/s 760 mmHg 79%
    21:00 +2°C° 0.1 mm 6 m/s 760 mmHg 80%
    22:00 +1°C° 0.1 mm 6 m/s 760 mmHg 81%
    23:00 +1°C° 0.1 mm 5 m/s 759 mmHg 81%
    Voir plus